Theta_e
316 318 320 321 321 325 327 327 326 326 325 318 319 321 322 324 327 328 328 330 333 332 333 334 333 333 335 336 337 338 339 339 341 341 343 342 336 336 334 331 333 334 337 335 331 331 334 335 335 335 330 330 331 333 335 333 333 333 333 333 333 332 332 332 333 332 332 332 333 333 334 334 334 334 334 335 335 334 334 334 334 334 334 335 335 334 333 332 330 326 322 323 323 323 322 317 313
316 319 321 322 323 327 330 327 323 322 321 317 319 321 321 323 326 328 327 330 333 331 334 334 334 333 333 334 334 338 340 338 338 340 340 337 335 334 331 332 333 334 335 335 333 333 334 334 334 334 332 332 332 334 336 334 333 333 332 332 333 332 332 333 333 332 331 332 333 334 334 334 334 335 334 334 334 333 334 334 334 334 334 334 334 334 333 332 331 327 324 324 323 324 323 320 315
316 318 321 323 323 327 330 326 321 318 317 317 318 320 323 325 328 331 330 332 332 332 334 333 334 333 333 334 335 341 341 337 336 336 336 336 335 332 331 332 332 333 334 336 336 334 333 334 334 333 333 334 333 334 335 334 333 332 331 332 333 333 332 332 332 332 331 332 334 334 334 334 334 334 334 333 333 333 334 333 333 333 333 334 333 334 333 332 331 328 327 325 323 324 324 322 318
315 318 323 324 326 328 330 327 324 319 316 317 318 321 325 328 331 332 331 332 332 333 334 333 335 333 333 335 335 340 341 337 336 336 335 336 333 331 332 333 332 333 335 336 336 333 332 334 333 333 334 334 333 334 334 333 333 332 331 331 332 332 331 331 332 332 332 332 333 334 334 334 334 334 333 333 333 334 333 332 331 332 332 333 334 334 332 332 331 328 326 325 324 324 324 323 320
318 322 324 324 326 328 327 324 323 320 317 318 319 322 325 327 330 331 331 332 332 333 332 333 335 333 332 335 337 339 339 338 336 336 335 335 333 332 332 332 332 333 335 335 335 332 331 334 333 333 335 334 334 334 334 333 332 331 331 331 331 331 330 331 332 333 333 333 333 333 333 333 334 333 332 332 332 334 332 330 330 332 333 332 332 332 331 330 329 328 325 324 325 324 323 322 320
320 323 323 324 326 325 324 321 319 318 320 321 320 321 324 327 329 330 331 331 331 333 332 333 332 333 335 336 338 338 338 337 337 337 335 334 332 332 332 332 331 333 335 335 335 331 330 333 332 334 334 335 335 335 333 331 330 329 329 331 332 331 330 331 332 332 332 332 332 332 332 333 333 333 332 332 333 333 331 329 329 332 332 331 331 331 330 329 328 327 325 324 323 321 321 320 319
320 323 326 327 327 325 325 322 319 320 321 322 321 320 325 327 328 330 331 330 331 331 330 333 330 334 338 335 338 338 337 337 337 337 335 333 331 332 332 331 331 333 336 336 335 330 330 333 332 333 334 334 335 334 332 329 330 328 328 331 332 331 330 331 331 332 332 331 331 330 331 333 334 334 334 334 334 333 330 329 331 332 331 330 330 329 329 328 327 325 323 320 318 317 317 317 317
321 325 328 328 328 328 327 322 321 322 321 321 321 321 324 326 327 328 329 330 330 330 330 333 331 333 334 335 340 337 336 338 337 336 335 332 330 332 332 332 331 332 335 336 334 330 330 334 333 333 334 334 334 333 329 328 332 330 329 331 331 331 331 331 331 333 333 331 331 331 332 333 333 334 334 334 334 333 331 330 331 331 330 330 329 328 328 327 324 321 319 317 316 315 314 316 316
322 325 327 328 330 330 328 322 321 322 322 321 320 321 324 327 327 327 327 327 328 329 330 331 332 333 332 337 340 337 336 338 337 336 334 330 329 332 331 331 331 332 335 335 332 328 331 334 334 334 334 334 334 332 328 327 331 331 329 331 331 332 332 332 332 333 333 332 331 331 332 332 333 333 333 333 332 332 331 330 331 330 329 328 328 327 326 325 323 320 318 317 316 314 313 315 316
323 326 327 329 329 328 326 321 321 323 321 322 321 320 323 325 327 327 326 326 326 328 330 331 331 331 331 338 340 338 337 337 337 336 333 330 330 332 331 331 331 333 334 334 332 327 330 334 333 333 333 333 333 332 329 327 328 330 330 331 331 333 333 333 333 332 332 331 330 331 332 332 332 332 331 332 331 331 331 330 330 329 328 327 327 326 324 324 323 321 319 318 316 314 313 314 315
326 327 327 329 327 325 324 320 320 323 321 321 321 320 322 325 327 328 326 325 325 329 332 330 330 329 329 339 340 337 336 337 336 335 333 331 331 331 331 332 331 332 333 333 332 328 328 332 332 332 332 331 332 331 329 328 328 329 330 331 332 332 333 332 332 332 331 330 330 331 332 332 332 331 331 331 330 330 330 330 330 329 327 326 325 324 324 323 322 320 319 318 317 316 314 314 314
329 330 329 329 327 327 326 322 320 322 323 323 322 321 322 324 327 328 326 324 323 328 330 328 329 326 327 339 340 337 336 337 336 335 333 331 331 331 331 331 331 332 332 333 333 330 327 329 330 331 332 331 330 329 329 329 329 329 330 332 332 332 331 330 330 330 329 329 330 331 331 332 331 331 331 330 329 329 330 329 328 327 326 325 324 324 324 324 322 320 320 319 318 318 317 316 315
332 331 330 329 329 330 329 327 323 321 324 325 323 322 322 325 327 327 325 323 322 325 327 326 327 324 329 340 339 337 337 336 336 335 333 332 332 332 331 331 331 331 332 333 334 332 329 329 329 329 329 329 329 329 327 328 330 330 330 332 332 331 329 328 329 328 327 328 330 330 330 330 331 331 330 330 329 328 329 328 328 327 326 325 323 323 323 323 321 320 320 320 320 319 319 318 317
330 328 328 329 330 331 329 329 327 322 322 324 323 321 323 325 327 326 324 324 325 326 326 325 324 323 330 340 340 338 337 336 335 334 333 332 331 332 332 331 332 331 331 332 333 333 332 331 330 328 327 327 328 328 327 327 329 330 330 331 331 330 328 326 327 328 328 328 329 329 329 329 330 330 329 330 329 327 327 328 329 327 325 322 320 320 321 320 319 320 320 320 320 320 320 319 319
327 327 329 330 329 329 330 330 328 324 321 323 323 322 324 325 325 326 324 325 327 328 326 326 327 325 326 337 341 338 336 336 335 334 333 331 331 331 332 332 332 331 331 331 331 332 333 333 332 330 329 328 328 327 326 328 329 330 330 330 330 329 328 326 326 328 329 329 329 329 328 328 329 329 329 329 328 327 327 328 328 326 323 321 320 319 319 319 319 320 320 320 320 320 320 319 320
325 327 329 329 327 327 330 331 330 325 320 321 322 322 325 324 324 324 322 324 327 326 325 327 328 328 330 336 339 337 336 336 335 333 333 332 330 331 332 332 332 329 330 331 330 331 332 334 334 331 331 330 329 328 326 327 329 330 330 330 330 328 328 327 326 328 329 328 328 328 327 327 328 328 328 329 328 327 327 327 326 325 322 321 320 320 320 320 319 319 320 319 320 320 320 320 319
324 328 329 326 326 327 328 329 328 323 320 321 322 323 324 324 323 322 321 322 326 325 325 328 327 328 334 339 338 336 336 335 334 333 333 332 330 331 331 332 332 330 329 331 330 330 331 333 335 332 332 331 329 330 329 327 327 329 331 330 330 328 328 327 325 326 329 328 327 327 326 326 326 327 328 328 328 327 326 326 325 324 322 321 320 320 320 320 320 320 320 319 320 320 320 320 319
324 327 327 326 327 326 324 323 322 321 319 320 321 322 324 324 323 322 322 322 324 325 325 329 329 328 331 336 338 336 336 335 334 333 333 332 330 330 330 330 332 331 330 331 330 330 330 332 335 334 333 332 330 331 331 328 326 326 328 329 330 329 328 327 325 326 328 328 326 326 326 326 326 327 327 327 327 327 326 326 325 323 322 320 319 320 320 320 320 320 320 320 319 320 322 322 322
326 327 328 328 328 324 320 319 318 319 319 318 318 320 322 324 323 322 323 323 324 325 326 329 330 329 329 335 338 336 336 335 334 333 333 332 331 329 328 328 330 331 330 331 331 330 330 331 333 333 333 332 332 332 331 330 327 325 327 328 329 328 328 327 325 324 326 327 326 327 328 328 328 329 329 327 326 326 326 326 324 323 322 322 320 319 320 320 320 320 320 320 320 322 324 325 324
328 327 329 330 325 321 318 317 316 316 317 318 318 317 319 322 323 322 322 323 324 324 326 327 329 330 330 334 337 336 336 335 334 333 332 332 331 329 327 328 329 330 329 330 331 330 330 330 331 331 332 333 332 332 331 331 329 326 327 328 329 328 328 327 325 324 327 327 326 329 330 329 329 329 328 327 328 326 324 325 324 322 321 321 321 320 320 320 320 320 319 319 321 323 324 325 325
329 325 329 328 321 320 317 315 315 315 315 317 317 317 317 319 321 321 323 323 324 324 324 326 327 329 329 333 337 336 336 335 334 333 333 332 332 329 327 328 329 329 329 329 331 330 330 330 330 330 331 332 332 331 331 331 328 326 328 328 328 328 327 327 327 326 328 329 326 328 329 328 328 328 328 327 328 326 324 323 321 321 321 320 320 320 321 321 321 321 320 321 323 324 325 325 323
328 326 329 325 319 319 315 313 314 314 314 316 316 317 317 317 318 320 321 323 323 322 322 323 323 328 329 331 337 336 335 335 334 334 333 333 333 331 329 328 329 329 329 329 330 330 330 330 330 330 330 331 331 330 329 329 328 327 328 328 327 328 326 325 328 328 329 330 327 328 329 328 327 328 328 326 326 327 326 324 323 324 324 323 321 320 324 325 324 324 322 322 325 325 324 323 321
329 328 328 323 319 317 314 313 313 313 314 315 316 315 315 316 317 318 320 320 321 320 321 321 320 328 329 331 337 336 335 335 334 334 333 333 333 332 331 329 329 329 329 330 329 329 330 330 330 330 330 330 330 329 328 328 328 328 328 328 327 327 327 326 328 328 328 330 327 328 330 327 327 327 327 325 325 328 327 326 326 326 326 325 322 321 326 325 323 326 325 324 325 324 322 322 321
329 330 328 323 320 316 315 314 313 313 314 315 315 314 314 316 316 318 319 318 320 320 319 320 319 327 330 331 337 336 335 335 334 334 334 334 333 333 332 330 330 329 329 330 329 329 329 330 330 329 329 329 329 329 328 328 327 328 328 328 327 327 327 326 328 327 327 329 327 327 329 327 326 327 327 325 326 327 326 327 327 327 326 326 325 324 325 322 320 324 326 325 325 323 323 322 322
329 331 327 321 319 316 314 316 315 313 314 315 314 314 315 315 316 316 318 318 318 319 319 320 319 325 331 332 336 337 335 335 335 335 335 335 334 333 333 331 331 330 330 330 330 329 328 330 330 329 328 328 329 329 328 329 327 327 328 328 327 327 328 327 327 327 327 328 326 326 328 328 326 327 327 327 327 327 327 327 327 327 326 326 326 324 323 322 321 323 324 325 324 324 323 322 322
329 332 328 319 319 316 315 317 315 314 316 316 316 316 317 316 316 316 316 316 316 318 320 321 320 324 332 333 335 336 335 335 336 336 335 335 335 334 334 333 332 331 331 331 330 330 328 329 330 329 329 328 328 329 329 329 327 327 327 328 327 327 328 328 327 327 327 327 327 327 327 327 327 327 327 327 327 326 327 327 326 327 325 325 325 322 319 320 321 323 323 324 324 323 323 323 323
329 331 327 319 320 319 317 318 316 317 319 318 318 319 319 317 316 317 318 317 317 320 321 321 321 323 330 332 333 333 334 336 336 336 336 336 336 335 335 334 333 333 332 332 331 330 329 328 329 329 329 328 328 328 328 328 328 327 327 327 327 328 328 328 328 328 328 328 328 327 327 327 328 328 327 327 327 326 326 326 325 324 324 323 322 320 320 319 320 323 323 323 323 323 323 324 324
327 327 325 322 322 321 319 319 318 319 320 319 318 319 320 318 316 316 318 318 319 321 320 321 322 322 327 330 332 332 332 335 336 336 336 336 336 336 335 335 334 334 333 333 331 330 329 329 329 329 329 329 328 328 328 328 328 327 327 327 327 327 327 328 329 328 328 328 328 328 327 326 327 328 328 327 327 326 324 323 322 322 321 322 322 321 322 321 319 323 323 322 323 323 324 323 324
328 326 327 327 325 323 322 320 319 320 319 318 319 324 326 324 320 317 317 318 319 320 319 321 323 322 325 327 331 333 331 333 336 336 336 337 336 336 336 335 335 335 334 334 332 331 330 329 329 329 328 328 327 327 327 327 327 327 327 327 327 326 326 327 329 329 328 328 328 327 327 326 326 327 328 327 326 325 324 323 322 322 321 321 323 323 323 322 320 323 324 324 324 324 323 324 324
329 327 330 333 332 330 326 323 322 321 320 319 324 331 332 330 328 322 318 319 318 319 319 321 324 323 324 325 329 333 332 331 334 336 336 337 337 336 336 335 335 335 334 334 333 332 331 330 329 328 328 328 327 326 326 326 326 327 327 326 327 326 325 324 326 328 329 328 327 327 327 327 325 325 326 326 326 325 325 326 325 324 323 322 325 325 324 323 322 324 325 325 325 325 324 324 325
329 330 332 335 337 335 331 327 325 324 322 320 327 332 333 331 330 323 319 320 319 319 319 320 324 324 324 326 329 332 333 331 333 335 336 336 336 336 336 335 335 334 334 334 334 333 332 331 329 328 328 328 327 326 326 325 325 327 326 325 326 326 325 323 321 324 327 327 326 326 326 326 324 322 323 325 325 323 325 327 326 326 325 325 326 326 325 324 325 325 326 326 326 326 325 325 324
329 333 335 336 337 335 332 329 328 327 322 320 327 332 332 331 330 326 321 319 319 319 319 319 321 323 324 327 329 332 333 331 331 334 336 336 336 336 335 335 335 334 334 334 334 334 333 333 331 330 329 328 328 327 326 326 325 326 325 324 324 326 325 323 320 319 323 325 326 326 325 324 322 318 318 323 324 322 323 327 327 326 327 327 326 326 325 325 326 326 326 326 326 326 325 325 324
332 334 334 335 336 334 330 330 330 327 321 322 328 332 332 330 329 329 323 318 318 318 319 319 320 322 324 328 330 332 333 333 332 333 334 336 336 335 335 334 334 334 334 334 334 334 334 333 332 331 330 329 328 327 326 326 326 325 325 324 324 325 324 323 321 319 320 322 324 325 325 322 319 316 314 318 322 322 322 325 327 327 327 327 327 326 326 326 326 326 326 326 325 325 325 324 324
334 333 332 333 335 334 330 327 330 326 321 323 326 330 331 329 327 325 320 318 319 319 319 320 320 321 324 328 330 331 332 334 333 332 332 335 336 335 335 335 335 334 334 334 334 333 333 333 333 332 331 330 329 328 327 326 327 326 326 325 325 325 324 323 322 322 321 321 323 324 324 323 321 318 315 316 320 322 323 324 326 327 327 327 327 327 326 326 326 325 326 326 325 325 325 324 324
331 332 332 332 331 333 331 326 326 323 322 326 326 326 327 326 326 324 319 317 317 318 318 319 319 319 322 327 329 329 330 331 331 330 331 333 334 335 335 335 335 335 335 334 334 334 333 333 333 333 332 331 330 329 328 327 327 327 327 327 326 325 325 324 323 323 323 323 323 325 325 324 323 322 320 318 318 322 324 325 326 327 327 328 328 327 327 327 326 326 326 325 325 325 324 324 324
329 331 331 332 330 331 332 325 323 323 323 326 326 325 325 324 324 324 322 320 318 319 319 318 319 319 319 324 327 328 329 329 327 329 332 332 333 334 335 335 335 335 335 334 334 334 333 333 333 333 332 332 331 331 330 329 328 328 328 328 328 327 326 326 325 325 324 324 325 326 326 326 325 325 324 321 320 320 323 325 325 327 327 328 328 328 327 327 326 326 325 325 324 324 324 324 324
329 330 331 332 329 330 330 322 319 321 323 324 325 326 326 326 325 325 325 324 322 323 322 321 321 320 319 320 324 326 328 327 325 326 330 332 332 333 335 335 335 335 335 335 334 334 334 333 333 333 332 332 332 332 331 330 329 329 329 329 329 329 328 327 326 326 326 326 326 326 327 327 327 326 326 324 323 322 323 324 325 326 327 328 328 328 327 327 326 326 325 325 324 324 324 324 324
328 330 331 332 330 331 329 320 317 320 324 326 327 328 328 328 328 328 327 326 325 324 323 322 322 322 321 319 320 323 324 325 326 327 328 331 332 333 334 335 335 335 335 335 334 333 334 333 333 333 333 332 332 332 332 331 331 330 330 330 330 330 329 328 328 327 327 327 327 327 327 328 328 328 327 326 325 324 324 324 324 325 327 328 328 328 327 327 326 326 325 325 325 325 324 325 324
330 331 333 333 332 331 327 319 319 321 324 329 329 330 329 328 328 328 327 326 326 325 324 322 320 320 321 320 319 320 322 325 330 330 328 330 333 333 334 334 334 334 334 334 334 333 333 333 333 333 333 333 332 331 331 332 332 331 331 330 330 330 330 330 329 329 328 328 328 328 328 328 329 328 328 328 327 326 327 327 326 326 326 328 328 328 327 327 327 326 326 325 325 325 325 324 324
331 332 333 332 332 333 327 320 320 320 322 326 326 326 325 324 325 325 325 325 323 325 325 323 321 320 320 321 321 320 320 323 329 331 329 329 332 334 333 334 334 334 334 334 333 333 333 333 333 333 333 333 332 331 331 331 331 331 331 331 331 331 331 331 331 330 329 329 329 329 330 330 329 329 329 329 328 328 328 328 328 327 327 328 328 328 328 327 326 326 326 325 325 326 325 325 324
332 332 333 331 330 332 329 323 321 321 321 321 321 326 326 323 324 324 325 326 324 324 324 325 325 321 321 323 324 323 321 321 324 328 327 325 329 332 332 332 333 333 333 333 333 333 333 333 333 333 333 332 332 332 331 330 331 331 331 331 331 331 331 331 331 331 330 330 329 329 330 331 331 330 330 329 329 329 329 329 329 328 328 328 328 329 328 327 327 326 326 326 326 326 326 325 324
332 332 332 330 328 330 330 328 327 329 329 322 320 331 333 326 325 326 326 326 325 325 325 325 326 324 322 322 323 324 323 322 322 323 323 321 325 330 331 332 332 333 332 332 332 332 332 332 332 332 333 332 332 332 331 330 330 331 331 331 331 331 331 332 331 332 331 330 330 329 329 330 331 331 331 330 329 329 329 330 330 330 329 329 329 329 329 328 328 327 326 326 326 326 326 325 325
331 331 331 329 329 332 331 331 332 334 333 323 320 331 334 328 325 326 327 328 327 326 326 326 326 325 323 322 321 321 321 322 322 322 322 320 321 326 330 331 331 331 330 330 331 331 331 331 332 332 332 332 331 331 331 331 330 330 331 331 331 331 331 331 331 331 331 331 330 330 329 329 329 331 331 331 330 330 330 330 330 330 329 329 329 329 329 329 328 328 327 327 326 326 326 325 325
331 331 330 329 330 333 331 329 332 334 331 326 323 328 332 331 329 327 327 328 328 327 327 326 324 323 322 321 321 320 320 320 321 322 322 320 318 322 327 329 330 329 329 330 330 330 330 330 331 331 331 331 331 331 330 331 330 330 330 331 331 331 331 331 331 331 331 332 331 331 330 329 328 329 330 331 331 331 330 330 330 330 330 330 330 330 329 329 328 327 327 327 327 326 326 326 325
330 330 331 330 329 331 330 330 332 331 331 330 328 328 333 334 329 327 328 327 327 327 326 326 325 323 321 320 320 320 321 321 321 322 322 319 315 318 323 327 328 328 328 329 329 329 330 330 330 330 331 331 331 331 331 331 331 330 329 330 331 331 331 331 331 331 331 332 332 331 330 330 329 328 329 330 331 331 331 330 330 330 331 331 331 330 330 329 328 328 327 327 327 326 326 326 325
329 330 330 329 328 328 329 330 329 328 330 331 330 329 334 334 329 326 329 328 328 329 327 328 328 327 324 321 321 322 322 323 322 322 321 317 315 317 318 322 326 327 328 328 328 329 330 330 330 330 330 330 331 330 331 331 331 330 330 329 330 330 330 331 331 331 331 332 332 332 331 330 330 329 329 329 330 331 331 330 330 330 330 330 330 330 330 329 329 328 327 327 327 326 326 326 326
328 329 328 328 327 325 326 327 326 330 332 331 330 329 331 335 332 327 327 327 327 328 327 327 328 327 326 325 325 323 323 326 324 322 319 315 315 316 316 318 320 324 327 328 328 328 329 330 330 330 330 330 330 330 331 331 331 331 330 330 329 329 330 330 331 331 331 331 331 331 331 331 330 330 330 330 330 330 330 330 330 330 329 329 330 330 330 330 329 328 328 327 327 326 326 326 326
328 328 327 327 326 325 327 326 326 332 334 329 328 329 330 334 333 327 326 325 324 325 324 324 325 325 324 325 325 321 321 323 322 322 321 318 316 315 314 316 316 318 323 326 327 328 329 330 329 330 330 330 330 330 330 331 331 331 331 330 329 329 330 330 330 330 330 330 331 331 331 331 331 330 330 330 330 330 330 330 330 330 329 329 329 329 330 330 329 329 328 327 327 326 327 326 325
328 327 327 330 330 328 330 329 328 332 330 323 325 329 330 331 328 325 326 324 323 324 323 323 324 321 320 321 322 321 320 320 320 323 325 324 321 315 312 313 313 314 317 320 323 326 327 328 329 330 329 329 330 330 331 331 331 332 331 331 330 330 330 330 330 330 330 330 330 330 331 331 330 330 330 330 329 329 329 329 329 329 329 330 330 329 330 330 329 329 329 328 327 327 326 326 325
326 327 329 332 331 330 331 330 330 332 327 320 321 327 329 328 324 323 324 322 323 324 324 326 324 320 320 319 320 321 322 322 324 325 325 326 323 315 312 313 313 312 313 314 317 320 323 325 327 328 329 329 330 330 331 331 331 331 331 331 331 331 330 330 330 330 330 330 329 330 330 330 330 330 329 329 329 329 328 328 328 328 328 329 329 330 329 329 329 329 328 328 328 327 327 326 325
326 327 328 330 331 331 331 330 332 333 326 319 321 328 332 330 325 321 320 320 320 320 322 324 323 321 321 320 319 320 320 322 325 325 323 323 318 314 314 313 312 312 312 312 313 314 317 319 321 324 325 327 328 329 330 331 331 331 331 331 331 331 331 330 330 330 330 330 329 329 329 329 329 329 329 329 329 328 328 327 327 327 328 328 328 329 329 329 329 328 328 328 328 327 327 326 325
326 327 328 330 331 330 329 329 328 329 327 323 324 328 329 325 322 320 320 321 319 318 319 320 322 322 322 321 321 322 321 321 323 322 322 320 315 313 313 312 312 312 311 312 312 312 313 314 316 317 319 321 323 325 327 329 330 330 330 331 331 331 331 330 330 330 329 330 330 329 329 329 329 329 329 329 328 328 327 327 327 327 327 328 328 328 328 329 329 329 328 328 328 327 327 326 324
326 329 329 328 329 327 329 329 324 324 329 329 326 326 325 321 322 322 323 324 322 319 318 318 321 323 322 322 322 322 321 320 321 320 320 318 314 313 313 312 312 312 312 312 311 311 311 311 312 313 314 316 318 320 323 324 327 328 329 329 329 330 330 330 330 329 329 329 329 330 329 329 329 328 329 329 328 328 327 327 327 327 327 328 328 328 328 329 329 329 328 328 327 327 326 325 324
326 329 327 326 329 327 327 329 327 326 329 329 327 327 326 326 328 325 322 324 322 320 319 319 320 321 322 322 321 321 321 320 320 319 320 317 313 312 313 312 313 312 312 312 311 311 311 310 310 311 311 313 314 316 318 320 323 325 326 327 328 329 329 329 329 328 329 328 328 329 329 330 329 328 329 329 328 328 327 327 326 327 327 327 328 328 328 328 328 328 328 327 327 326 326 325 324
324 327 325 326 331 330 327 328 331 330 328 329 331 329 327 328 326 323 324 324 322 320 321 320 318 319 321 322 321 320 320 320 321 321 323 321 314 312 313 312 313 312 312 312 311 311 311 310 310 310 310 311 311 312 314 316 319 321 323 325 326 327 327 328 328 328 328 328 328 328 328 329 329 329 329 328 328 328 327 327 326 326 327 327 328 328 328 328 327 327 327 327 326 326 325 324 323
322 325 325 325 328 330 328 327 330 332 329 330 332 331 331 329 322 320 324 325 322 322 323 319 316 317 319 320 321 322 322 322 322 321 323 323 316 312 312 311 311 311 311 310 310 309 309 310 310 310 310 310 310 311 312 314 315 317 319 322 324 325 326 327 327 328 327 327 327 327 327 328 328 329 328 328 328 328 327 327 326 326 326 327 327 327 328 328 327 326 326 326 325 325 325 324 323
322 325 326 325 325 327 328 327 328 330 330 332 332 330 332 328 321 320 321 322 322 322 322 319 317 317 318 319 323 325 324 324 324 322 323 322 316 312 313 312 311 311 310 309 309 308 308 309 310 311 311 310 310 310 311 312 313 315 317 319 320 322 323 324 325 326 326 326 327 327 327 327 328 328 328 328 328 327 328 327 326 326 326 326 326 326 327 327 327 326 325 325 325 324 324 323 322
321 323 324 324 324 325 328 328 327 326 329 330 328 329 330 325 320 322 320 322 324 323 322 320 317 317 317 319 323 326 327 325 324 323 324 322 315 312 313 312 311 311 310 310 310 309 309 309 310 311 311 311 311 311 311 311 311 313 315 317 319 320 321 322 323 324 325 325 325 326 326 327 328 329 328 328 328 327 328 328 327 326 326 326 326 326 326 326 326 326 325 324 324 323 322 321 321
Wind_Speed
12 14 15 18 16 13 9 4 1 2 3 1 4 4 3 4 3 5 5 3 3 4 5 5 6 7 3 2 7 11 9 6 4 2 2 6 13 15 15 18 18 17 16 14 15 16 14 12 10 10 11 14 16 17 16 15 16 16 15 14 14 14 15 15 15 15 15 15 16 15 16 16 16 16 17 17 17 18 18 18 17 18 17 17 17 17 17 17 18 19 19 20 21 22 23 24 24
12 12 13 16 14 7 4 2 1 4 3 3 4 4 4 2 2 5 5 4 6 4 3 5 5 4 2 1 5 9 10 10 8 5 6 13 15 15 16 16 17 17 16 15 15 15 14 12 10 10 11 14 15 18 17 16 16 16 15 15 15 14 14 14 15 15 15 15 15 15 15 15 16 16 16 16 17 18 17 17 17 17 16 16 16 16 16 16 17 18 18 19 20 20 21 22 23
12 11 12 14 9 4 2 2 2 4 1 4 4 2 4 3 3 7 8 9 8 5 4 4 4 2 2 3 6 7 7 8 11 8 7 15 14 13 16 16 16 16 17 17 15 14 14 12 11 11 12 14 15 18 18 16 15 15 15 15 14 14 14 14 14 15 15 15 14 15 15 15 16 15 15 16 16 17 16 16 16 16 16 16 15 15 16 16 16 16 17 17 18 19 20 21 21
12 11 10 10 5 3 2 2 3 4 3 4 3 2 3 5 8 10 8 8 7 4 4 2 2 2 4 5 6 7 7 7 10 9 5 13 15 15 17 16 15 16 17 17 15 15 14 11 11 12 13 16 17 18 19 17 15 15 15 14 14 14 14 13 14 14 14 15 15 15 15 15 14 12 14 16 17 16 15 15 15 15 15 15 15 15 15 14 14 15 16 16 17 17 18 19 19
13 12 10 8 3 2 2 2 3 2 4 3 4 2 2 7 10 8 7 6 5 3 2 2 1 1 2 5 3 3 5 7 10 10 8 14 20 18 17 17 15 16 17 17 15 15 14 12 12 14 15 17 18 18 18 16 15 14 13 13 13 13 14 14 14 13 14 14 14 14 14 14 12 11 13 15 16 16 15 14 14 15 15 14 14 14 14 14 14 15 15 15 15 15 16 16 18
13 14 11 8 2 1 0 3 2 4 4 4 4 2 3 8 9 8 7 6 4 3 2 0 2 3 3 4 6 4 3 6 10 13 15 18 21 19 17 17 15 16 18 17 14 14 14 13 13 15 15 16 16 15 15 15 14 13 12 13 13 11 13 15 14 13 14 14 13 13 14 14 12 12 13 14 15 15 15 14 13 14 15 14 14 14 14 14 14 14 14 14 14 14 14 15 16
10 9 6 4 2 1 2 5 1 5 4 5 5 3 5 8 8 8 7 5 4 2 2 2 1 3 4 4 6 6 7 7 10 16 21 20 21 19 16 16 16 16 17 17 13 14 16 14 14 14 15 15 13 12 13 13 13 12 13 13 12 10 12 13 12 13 14 14 13 13 15 13 12 13 14 14 14 14 14 14 14 14 14 14 14 14 13 13 13 13 13 13 13 13 14 14 16
8 4 1 1 3 2 3 5 2 5 2 4 5 4 5 8 7 7 6 4 3 3 1 1 1 1 2 3 4 4 8 14 17 20 23 21 21 18 16 16 16 16 17 16 13 15 17 14 14 14 15 14 12 12 12 13 13 12 12 12 11 11 12 11 11 13 14 14 14 13 14 12 12 13 13 13 13 13 13 13 13 13 13 13 14 13 13 12 12 13 13 13 14 14 14 14 16
8 4 1 1 3 2 4 3 3 5 4 4 5 3 3 6 6 6 5 4 4 4 5 2 0 0 3 7 6 5 7 15 20 19 20 20 19 16 16 16 16 16 18 16 13 17 18 15 15 14 15 14 12 11 11 13 13 11 11 11 10 12 13 12 12 14 13 13 13 13 13 12 12 12 12 12 12 12 13 13 12 12 12 12 13 13 12 12 13 13 14 14 14 14 15 15 16
4 3 1 2 2 3 5 1 4 3 5 5 5 4 2 3 4 6 5 5 5 4 5 2 2 1 2 8 5 5 8 13 18 17 17 18 16 14 16 16 16 16 16 14 14 17 17 16 16 14 14 14 12 10 9 11 12 11 10 11 11 13 13 12 12 12 12 13 13 13 12 12 12 12 11 11 12 12 13 12 12 12 12 12 12 12 12 12 13 13 14 14 14 15 15 15 16
2 2 0 1 3 3 2 2 4 3 6 6 5 5 2 1 1 4 5 5 5 4 5 2 1 2 1 6 2 6 12 14 16 17 17 16 14 14 16 16 16 15 14 15 14 15 17 17 16 14 14 13 12 10 9 8 9 9 11 12 12 13 12 12 12 11 11 12 12 12 11 11 11 11 11 11 11 12 12 11 11 11 11 11 11 12 12 12 12 13 14 14 14 15 15 15 15
2 3 1 2 4 2 2 2 2 4 6 5 5 3 1 1 1 2 6 5 4 5 5 3 1 1 2 4 2 9 14 13 16 17 17 15 13 14 16 16 15 14 15 15 14 14 16 16 15 15 14 12 11 10 9 9 9 9 10 12 12 12 11 11 10 10 11 11 11 11 11 11 11 11 12 11 11 11 11 10 10 10 10 10 11 11 12 12 12 13 13 13 14 14 14 14 14
1 3 2 2 4 2 1 1 2 3 3 3 4 1 2 2 3 1 4 5 4 3 5 4 1 1 1 5 4 8 11 14 17 18 17 14 12 14 15 16 15 15 15 15 15 14 14 15 15 14 13 12 10 9 8 9 9 9 11 12 12 10 10 10 9 10 11 11 12 11 12 11 11 12 12 11 10 11 10 10 10 10 10 10 10 11 12 11 12 12 12 12 13 13 13 13 13
0 2 1 2 4 4 2 2 1 2 2 3 2 2 2 1 0 3 2 4 4 1 4 5 2 0 1 5 4 4 9 16 19 19 16 13 12 13 14 15 15 16 15 14 15 14 13 14 14 14 13 11 10 8 8 9 9 10 11 12 12 10 8 8 7 9 10 11 11 11 11 10 11 12 11 11 10 10 10 10 10 9 10 10 10 11 11 11 11 11 11 12 11 12 12 12 12
1 2 1 2 4 4 0 1 1 2 3 3 2 2 3 2 4 5 4 3 4 2 4 5 2 1 1 2 4 6 13 19 21 19 16 14 13 12 14 15 14 16 16 14 14 13 14 15 14 13 13 11 10 8 8 10 9 10 12 12 12 10 8 6 6 8 9 10 9 9 9 9 10 11 11 10 9 9 10 10 8 8 9 10 10 10 10 10 10 10 10 10 10 10 10 10 10
1 1 1 1 3 4 1 2 1 2 2 3 1 1 4 4 2 2 3 2 3 1 1 3 1 2 3 4 7 16 20 21 21 19 16 15 14 13 14 14 13 15 15 13 14 14 14 16 15 13 13 11 10 9 8 10 10 10 11 11 11 9 7 5 5 7 8 8 7 7 7 7 9 10 10 9 9 9 9 8 7 8 9 9 10 9 9 9 9 9 9 8 9 9 9 9 9
1 1 0 1 3 3 1 0 1 3 3 3 2 2 3 4 1 0 1 2 2 2 1 3 3 3 5 7 15 23 24 23 22 19 16 15 14 14 13 14 13 13 14 14 15 15 14 16 14 13 14 11 11 12 9 9 10 10 11 11 11 9 7 5 6 7 7 6 6 6 5 7 8 9 9 9 9 8 7 7 7 6 8 9 9 9 8 8 7 7 7 7 7 7 7 7 8
1 1 2 2 2 3 3 4 3 3 5 4 3 0 1 4 3 2 2 2 2 3 3 4 5 7 7 11 20 23 23 23 23 21 18 15 14 14 14 15 15 14 14 14 14 16 16 16 13 14 16 13 13 14 11 9 10 10 11 11 11 10 8 6 7 8 8 7 6 6 6 5 5 7 7 7 9 9 7 6 5 4 5 7 8 7 6 6 6 5 6 5 6 6 6 6 6
2 1 3 3 2 1 3 5 4 4 5 4 5 3 3 2 3 2 1 4 5 4 4 5 5 7 6 11 20 21 21 21 21 21 19 17 15 15 15 16 16 15 16 15 15 17 17 17 15 15 16 15 14 14 12 10 10 10 11 11 12 11 10 8 8 10 9 8 8 10 9 6 4 7 7 6 8 9 8 7 5 4 3 3 4 4 4 4 4 4 4 4 5 6 6 4 4
2 1 3 2 3 2 3 5 5 5 4 4 5 3 2 1 2 2 2 4 5 6 5 6 7 8 7 10 18 19 19 19 19 19 18 18 16 16 16 16 17 17 18 17 16 17 17 18 18 16 16 16 16 15 13 10 9 11 11 11 12 12 10 9 9 10 10 9 12 12 10 10 9 9 9 7 8 8 7 7 6 5 4 4 3 2 2 2 2 2 3 3 3 4 4 2 1
2 2 4 1 2 2 4 6 6 5 4 4 3 1 0 1 1 1 3 4 3 5 5 7 8 11 12 10 16 19 18 18 19 18 17 18 17 16 17 17 17 17 19 19 18 19 18 19 19 18 17 17 17 15 14 12 10 12 13 11 12 11 10 11 11 12 12 11 13 12 9 14 13 10 10 10 9 7 5 5 4 4 3 3 3 3 2 1 1 1 2 1 2 2 1 2 3
2 3 5 1 1 1 4 5 5 4 2 1 0 1 1 2 1 3 4 4 2 0 1 2 1 9 15 13 16 17 16 16 18 18 18 18 18 17 17 17 17 16 18 20 20 20 19 19 20 20 19 18 18 16 15 14 13 13 15 14 13 12 10 12 14 14 14 14 14 12 9 15 15 10 11 11 9 7 5 3 2 2 2 3 4 3 3 2 1 0 2 1 1 1 3 4 4
2 4 5 4 2 1 3 4 2 2 1 2 1 1 2 2 3 3 5 6 2 3 5 5 7 9 19 16 16 15 13 15 18 20 20 20 20 18 17 18 19 18 19 20 19 20 20 19 20 21 21 20 19 17 15 15 16 15 15 15 15 15 13 13 15 15 15 15 16 14 10 13 16 12 11 11 11 10 10 6 3 4 6 7 6 4 5 6 5 4 4 3 3 5 5 4 5
3 4 4 5 3 3 3 3 2 0 1 1 2 1 2 4 3 1 2 5 4 2 5 6 5 10 18 15 14 14 14 17 19 22 21 20 21 20 18 17 18 19 20 20 19 21 22 21 21 22 22 22 20 19 16 16 18 17 16 16 16 17 16 15 16 16 15 16 17 17 12 13 17 14 12 12 13 13 13 10 9 10 11 10 8 7 7 8 6 6 6 6 6 5 4 4 3
5 5 2 4 3 4 5 4 3 2 2 1 0 2 5 5 1 1 4 6 6 3 4 6 3 7 12 11 12 12 13 16 18 20 21 20 20 20 19 17 17 19 20 20 20 21 23 23 22 22 22 22 22 21 18 17 18 19 17 18 18 17 17 17 17 17 17 17 18 17 15 15 16 15 14 15 15 15 14 12 13 14 13 11 10 10 9 7 6 6 7 6 6 3 3 4 3
5 8 3 4 4 5 5 4 4 3 2 2 2 5 5 2 2 2 8 8 8 5 5 6 4 5 8 9 11 11 11 14 17 19 21 21 20 21 20 19 18 20 20 21 21 21 23 24 23 23 23 22 23 22 21 18 18 20 19 20 20 19 18 18 18 18 19 18 18 18 18 17 16 16 16 16 16 17 16 15 16 15 12 12 12 11 9 8 7 6 7 6 5 5 4 4 4
2 6 3 4 4 4 5 4 5 4 2 3 4 6 4 1 1 4 4 3 5 5 5 5 5 6 7 7 9 12 12 15 19 19 19 20 20 22 22 22 21 20 21 22 22 22 22 25 25 24 23 23 23 23 23 21 19 20 20 20 21 21 20 19 19 19 20 20 20 20 21 20 18 16 17 17 17 18 18 17 17 14 12 12 11 9 8 8 8 7 7 8 7 7 5 4 4
1 1 2 2 4 3 5 6 5 4 2 5 4 5 6 2 3 5 3 2 5 6 5 6 6 6 7 7 7 9 11 16 20 19 19 21 21 22 24 25 24 22 22 23 24 23 23 25 26 25 24 24 24 24 24 23 20 20 20 20 21 22 23 21 20 20 20 20 20 21 23 23 20 17 17 18 18 18 18 17 14 13 12 11 10 9 9 9 9 9 9 9 9 8 8 7 6
1 0 2 5 6 6 8 8 7 6 3 4 2 4 7 7 8 10 9 6 6 6 6 7 7 6 6 7 7 7 10 15 19 20 21 23 23 23 25 27 26 24 23 23 24 25 24 26 26 26 26 25 26 25 24 24 22 21 20 21 20 21 23 23 22 21 20 20 20 21 22 23 22 20 18 17 18 17 15 14 12 12 12 11 10 10 10 10 9 9 9 8 7 7 6 6 6
3 3 4 4 5 7 10 10 8 8 5 6 5 2 5 6 8 10 11 9 7 6 6 7 7 6 6 6 6 6 9 13 16 21 23 23 24 25 26 26 27 27 25 23 24 25 25 26 26 27 27 27 27 26 25 25 23 22 22 22 21 21 22 24 24 21 20 21 20 21 22 23 23 22 20 18 18 16 14 14 13 13 12 10 11 11 10 9 9 7 7 8 7 6 5 6 8
3 4 4 3 4 4 7 12 10 8 6 8 6 3 5 5 6 4 7 7 6 6 6 6 6 6 6 6 7 6 8 12 16 20 22 23 24 25 26 26 27 27 26 25 25 25 25 26 27 27 28 28 28 28 26 26 25 24 23 23 23 22 22 23 24 23 22 21 21 23 24 23 23 23 22 20 20 18 16 16 14 13 11 10 11 11 10 8 7 7 8 9 9 8 8 8 10
3 4 3 4 4 2 3 9 12 10 4 7 7 3 6 7 7 5 3 6 6 6 6 6 7 7 7 6 7 6 7 12 16 17 20 22 23 25 26 26 27 28 27 26 26 26 25 26 27 28 29 29 30 30 28 26 26 25 24 24 23 22 22 23 23 24 23 22 22 23 24 24 23 23 23 21 20 19 19 18 15 14 13 11 12 12 11 9 9 10 10 11 11 10 10 10 11
3 4 3 5 7 4 2 5 10 10 6 8 9 4 4 3 6 6 3 6 6 6 6 6 6 7 7 6 6 6 6 9 12 16 19 21 23 24 25 26 27 28 28 27 27 28 28 26 27 28 29 30 30 30 29 27 26 27 26 25 24 23 24 24 23 23 24 24 24 23 24 24 23 23 23 23 21 20 20 19 16 15 15 14 15 14 13 12 11 12 12 12 12 11 12 12 11
4 5 5 5 6 5 4 3 6 9 7 8 10 8 6 3 4 5 6 7 7 7 7 7 7 6 7 7 7 6 7 7 8 14 19 21 22 23 23 23 25 26 28 28 27 28 29 29 28 28 28 29 29 29 30 29 27 26 26 26 25 25 26 25 24 24 24 25 24 24 24 24 23 24 24 24 23 21 20 20 18 16 16 17 17 15 14 14 12 12 13 12 12 12 13 12 11
6 6 5 5 5 5 5 4 5 9 7 7 9 9 9 8 6 5 7 8 8 8 7 7 7 7 6 7 7 6 7 7 8 15 20 21 21 22 21 21 22 25 26 27 27 27 29 29 29 29 27 27 28 28 28 29 28 26 25 26 26 27 27 27 26 26 25 25 25 25 25 25 24 24 25 25 24 23 21 21 20 18 17 18 18 16 16 16 14 13 14 13 13 13 13 12 12
8 6 5 5 5 6 5 5 7 10 7 6 8 9 9 9 8 8 8 9 9 8 7 6 6 6 6 6 7 7 7 7 11 18 21 21 22 22 22 22 22 24 25 26 26 26 27 29 28 29 29 27 26 26 27 29 29 27 26 26 27 28 29 28 28 28 27 26 26 25 26 26 26 25 25 26 26 25 24 23 22 21 20 20 20 19 18 17 16 16 16 15 14 14 13 14 14
8 6 6 7 5 6 5 5 6 7 5 6 8 8 8 8 8 7 7 8 9 9 8 8 7 7 7 7 7 8 8 8 12 18 20 23 24 23 24 23 23 24 25 25 26 27 27 28 28 29 30 29 28 27 27 29 30 29 29 29 29 29 29 30 29 30 29 28 27 27 27 27 27 27 26 26 27 27 26 25 24 23 23 22 22 20 18 18 17 16 17 16 15 15 15 14 14
8 5 4 5 5 6 2 5 5 3 1 5 6 7 9 9 8 7 7 7 8 8 9 9 9 8 8 9 10 9 8 8 11 14 18 23 24 24 25 25 24 25 26 27 28 29 28 28 29 29 29 31 32 30 28 28 29 30 29 30 30 29 30 31 31 31 31 29 28 27 28 28 28 28 27 27 27 27 27 27 26 25 25 24 23 21 19 19 18 17 17 17 16 16 16 15 13
8 4 4 4 4 4 0 5 5 3 1 4 4 6 8 8 8 8 7 8 7 7 9 9 10 11 10 10 10 10 8 8 9 10 15 21 24 26 26 26 27 27 28 29 29 30 30 29 30 29 29 30 33 33 30 29 28 28 28 27 27 27 28 30 32 31 31 31 30 29 28 30 30 30 29 28 28 29 29 29 28 27 26 26 25 23 22 21 20 20 20 19 17 17 17 16 14
6 4 4 4 4 5 2 1 2 3 2 4 4 5 7 8 9 9 10 11 10 10 12 12 11 12 12 11 10 10 11 10 10 10 12 17 22 24 26 28 29 28 28 30 30 31 32 33 32 31 30 31 32 34 33 31 28 27 27 26 25 25 25 26 29 31 32 33 33 32 31 31 32 31 31 30 30 31 31 31 30 29 28 27 26 26 25 24 24 23 23 22 20 19 17 17 16
7 6 5 4 5 6 3 2 3 3 3 3 3 4 6 8 9 10 10 12 14 13 13 13 12 11 11 10 9 9 11 11 12 12 12 14 19 24 28 30 29 29 31 32 33 33 33 35 35 34 33 32 32 34 34 32 29 27 26 25 24 23 24 25 27 30 32 34 35 35 34 32 31 31 32 31 31 31 32 32 32 31 30 29 29 28 28 27 26 26 25 24 24 23 19 17 17
7 7 6 6 5 5 4 5 3 1 2 2 0 3 4 5 6 7 3 4 9 9 11 13 12 9 8 9 9 9 9 9 11 12 12 14 19 24 27 29 29 30 33 35 35 35 35 35 36 35 35 34 34 33 33 33 32 30 27 27 27 26 26 28 31 32 33 35 36 36 36 36 34 32 32 32 32 32 32 33 33 33 32 31 31 30 29 28 27 27 27 26 26 27 23 19 18
5 6 9 8 5 4 2 2 3 0 1 2 2 2 3 5 6 8 6 5 7 5 8 10 9 8 8 9 10 10 10 10 9 10 10 12 17 20 23 27 30 32 35 35 34 35 36 35 35 35 35 35 35 34 32 33 35 34 31 30 31 30 30 32 34 33 32 34 35 34 35 37 37 35 34 33 33 33 33 33 34 34 34 33 32 31 31 30 29 28 28 27 26 26 26 23 19
4 2 8 9 5 2 1 3 1 2 1 1 3 3 3 6 6 9 8 9 11 10 10 9 8 9 10 10 10 11 11 10 9 9 9 10 14 19 22 28 31 34 34 32 32 34 36 36 34 34 35 35 35 34 33 34 36 37 35 33 32 33 34 34 32 31 30 31 31 33 34 35 37 38 37 35 35 35 35 35 36 36 36 34 33 33 33 32 30 28 28 27 26 26 28 26 22
2 2 4 6 4 3 1 1 1 2 3 2 4 3 3 5 5 7 8 10 12 13 13 11 11 11 11 11 11 11 10 10 10 9 9 10 14 19 22 27 31 33 31 28 31 33 33 34 33 32 33 35 36 35 35 36 36 37 37 35 34 35 35 34 30 28 29 30 30 31 32 33 34 36 37 37 37 36 37 36 36 37 37 37 36 35 34 33 31 29 29 29 28 28 28 28 26
2 1 4 5 2 2 3 2 1 2 1 3 4 4 3 4 4 5 5 8 10 10 9 10 10 9 9 10 10 9 9 8 8 7 7 10 16 20 21 22 25 27 28 27 29 30 30 31 31 32 34 35 36 36 36 37 38 38 37 37 37 36 35 33 30 28 28 30 30 30 31 32 33 33 35 37 38 38 38 37 37 37 38 38 39 38 35 34 33 32 31 30 30 30 29 29 29
5 4 6 6 4 5 4 2 3 1 3 4 6 8 4 3 5 5 4 5 5 4 5 4 4 5 4 3 2 2 4 5 4 3 4 7 11 15 17 17 19 21 24 26 27 28 29 29 30 32 34 34 35 36 37 37 37 38 39 39 39 38 35 32 30 30 30 30 31 32 32 32 32 32 33 35 37 38 38 38 38 38 38 38 39 40 38 36 35 34 32 31 31 32 31 30 31
7 5 5 5 3 3 2 1 2 1 3 2 4 7 7 5 6 4 3 3 0 3 4 4 5 5 4 4 4 4 5 5 5 3 4 5 7 9 12 15 17 17 19 23 26 27 28 29 30 31 33 34 35 35 35 36 36 37 39 39 39 38 35 32 31 32 32 31 32 32 31 32 32 32 33 35 38 39 39 39 39 39 39 39 40 40 40 39 36 35 33 32 32 32 33 32 32
5 4 6 5 3 2 1 2 2 3 3 3 2 1 5 7 7 6 6 6 4 4 4 5 5 3 2 1 1 3 4 4 5 5 6 6 6 8 12 15 17 17 18 21 24 25 26 27 28 29 31 33 33 32 32 33 34 35 37 38 37 36 33 32 33 33 32 32 32 31 31 32 33 34 35 38 39 40 40 40 40 40 40 39 40 40 40 39 38 36 36 35 34 34 34 33 32
7 7 6 4 4 3 2 4 2 2 2 3 1 3 3 5 4 9 13 12 8 6 6 5 6 5 4 3 2 2 3 4 6 6 6 5 6 7 10 11 12 14 16 18 19 21 22 23 24 26 28 29 29 30 30 31 33 35 35 35 35 35 34 34 34 33 32 32 33 33 33 33 34 37 39 40 40 39 40 40 40 41 41 40 39 38 38 38 38 37 36 37 36 36 35 34 32
7 5 5 4 4 4 4 4 3 3 1 2 1 1 3 3 2 5 9 8 4 2 6 6 5 4 3 1 2 4 4 5 5 5 5 5 5 6 7 7 8 9 11 13 15 17 19 21 22 23 25 26 26 28 29 30 32 33 34 34 34 34 34 35 35 35 33 33 33 34 34 34 36 38 39 39 39 39 39 39 39 40 41 40 40 39 37 36 37 36 35 36 37 36 36 34 33
5 4 5 5 4 3 3 2 3 4 2 1 3 3 4 4 6 9 6 5 4 3 5 6 4 4 3 2 3 4 3 1 2 3 3 4 5 6 7 7 8 8 10 12 14 16 18 19 21 22 24 25 24 26 28 29 30 31 32 33 34 34 34 34 35 35 35 35 35 35 36 36 36 37 38 37 37 38 38 38 39 40 40 39 40 40 39 37 36 36 35 36 37 36 35 34 32
4 5 6 3 1 3 3 0 1 3 1 3 4 4 5 3 7 9 9 8 6 6 6 5 6 6 6 4 3 3 2 2 2 3 3 3 4 5 7 8 9 9 10 12 14 16 17 18 19 20 21 22 23 24 26 27 29 30 31 32 33 34 35 35 35 35 35 35 34 35 35 35 35 36 36 36 36 36 36 37 37 39 39 38 38 39 39 38 36 36 35 35 36 35 34 33 32
6 6 6 3 5 3 2 1 1 2 3 3 4 6 4 2 5 5 8 9 7 7 7 6 6 6 7 5 4 4 4 3 3 4 4 4 4 6 7 7 7 8 9 10 11 12 13 15 16 17 19 20 22 23 24 25 26 28 30 30 31 32 33 35 36 35 34 33 34 34 34 33 34 35 34 33 33 33 33 34 35 36 37 37 37 36 38 38 37 36 35 34 34 33 32 32 32
4 5 6 4 1 1 3 2 2 4 4 4 4 7 5 6 5 2 5 10 9 9 7 7 7 7 6 6 6 5 4 3 3 3 4 5 6 6 5 5 5 5 6 7 8 9 10 12 13 15 17 18 19 20 22 24 25 26 28 28 29 30 31 32 32 33 32 32 34 34 33 33 33 33 33 32 32 31 31 32 34 35 36 37 37 36 36 37 37 37 36 34 32 31 32 32 32
1 3 6 4 2 2 4 3 2 3 4 4 3 3 4 7 8 7 8 10 11 11 8 8 8 8 7 6 6 6 5 5 4 4 4 4 5 4 3 3 3 3 5 6 7 9 10 10 11 13 14 15 16 17 19 21 23 24 25 26 27 28 29 30 30 30 31 32 33 33 32 32 32 32 32 32 32 32 31 32 33 34 35 36 37 37 36 35 36 36 35 34 32 32 32 32 31
4 6 8 5 2 2 1 2 2 2 3 3 3 4 5 5 6 10 11 9 9 9 8 8 8 9 8 8 7 6 6 6 5 5 5 5 4 3 2 2 1 2 4 5 6 8 9 10 11 11 12 13 14 15 16 18 20 21 23 25 26 26 27 28 29 29 30 31 32 32 33 32 31 31 31 32 32 32 32 32 32 33 34 35 36 37 37 36 36 35 34 34 34 33 33 32 31
9 7 8 8 5 3 2 3 4 2 2 2 2 4 7 4 4 8 9 7 7 9 10 9 9 10 10 8 8 7 7 7 7 6 6 5 5 4 2 2 3 3 3 4 4 5 7 9 10 10 11 12 13 13 14 15 17 19 21 23 24 25 25 26 28 29 30 30 30 30 31 31 30 30 30 32 32 31 31 31 31 32 33 34 36 37 38 38 38 36 35 35 36 35 34 33 32
Wind_Direction
330 330 329 323 314 314 300 262 272 254 213 110 83 96 65 58 108 113 112 151 96 50 36 61 56 45 46 14 82 84 47 36 40 15 105 154 150 135 125 123 128 128 129 134 134 128 124 129 131 128 118 119 119 118 116 111 109 103 101 101 98 97 97 96 95 94 95 94 90 88 86 87 88 89 89 87 85 84 83 83 83 83 83 82 82 80 80 82 83 85 84 80 77 75 74 75 75
332 331 324 314 298 299 306 248 280 265 196 95 62 79 102 123 160 124 119 106 85 80 59 59 57 53 81 84 96 85 58 56 70 77 108 138 127 115 127 130 130 129 128 131 131 129 130 132 132 132 124 123 124 120 114 109 110 106 105 103 101 101 98 96 95 96 97 98 95 92 91 91 91 90 90 88 85 83 83 83 82 83 84 83 83 83 84 84 83 84 83 79 77 76 75 76 77
327 324 321 319 293 235 275 281 247 281 297 96 74 99 137 136 98 87 83 81 84 90 76 72 79 39 343 77 74 70 81 78 90 94 116 137 122 124 138 132 133 131 131 133 131 135 138 132 128 132 129 130 128 120 114 111 109 108 108 104 106 105 99 102 101 99 100 102 98 94 93 91 89 91 95 92 89 86 87 88 87 87 87 87 86 87 87 85 84 83 82 78 77 76 76 77 78
321 318 310 312 302 236 271 264 245 300 5 82 90 105 126 101 86 78 78 84 93 107 101 127 118 11 2 51 72 81 93 90 107 114 138 145 131 136 140 133 134 132 135 133 132 140 140 130 124 131 127 127 130 123 117 114 110 109 110 110 113 108 102 106 105 105 104 103 100 96 93 91 91 98 104 103 101 97 93 90 90 93 93 92 90 88 87 86 84 83 81 78 77 75 76 78 80
319 315 293 287 314 304 303 288 279 10 20 25 90 95 83 93 96 92 92 89 100 115 130 178 106 53 44 38 41 90 103 106 118 118 120 129 131 137 137 135 134 133 133 128 136 143 139 131 124 132 127 125 129 124 119 119 119 114 111 111 112 112 113 112 108 108 107 107 105 101 98 96 94 96 103 109 109 102 96 92 91 94 95 94 90 88 85 83 82 82 80 77 75 74 76 78 81
313 312 282 257 252 318 308 272 286 81 21 7 81 96 88 95 103 106 98 87 81 62 4 284 106 102 104 54 54 61 74 120 131 126 121 123 132 137 136 136 134 134 131 129 142 145 140 133 127 132 128 125 127 124 123 126 123 116 113 112 111 117 122 119 116 111 110 112 109 104 102 100 94 93 102 107 102 96 96 96 95 93 92 93 91 89 86 83 82 80 77 74 72 72 75 79 84
305 315 279 245 251 230 232 266 332 83 16 13 59 57 87 99 107 117 118 108 93 73 344 340 88 96 114 114 82 54 37 92 122 128 129 130 133 136 139 139 135 132 131 135 145 147 143 134 128 130 127 125 127 127 128 127 120 116 118 118 118 123 127 126 119 109 109 111 107 104 103 99 96 96 99 100 96 94 95 96 96 94 93 93 92 89 87 84 81 78 75 72 71 73 77 82 88
286 293 331 315 278 232 253 282 39 87 61 40 59 26 59 108 122 130 136 140 146 153 171 340 13 349 143 137 98 76 65 88 102 116 127 132 134 138 140 139 136 131 131 139 145 147 147 137 130 128 129 129 129 128 125 126 123 123 129 125 122 121 126 132 119 105 105 106 105 108 108 103 100 98 97 97 95 93 93 97 96 95 95 94 93 89 87 84 80 78 76 75 74 75 80 86 91
274 231 337 308 270 267 256 266 77 92 102 77 82 47 23 108 133 136 128 122 134 143 147 170 134 355 120 102 92 110 99 98 105 116 125 131 137 139 140 140 138 133 135 141 140 145 148 140 134 131 132 132 132 128 121 126 130 135 138 132 125 118 119 127 119 109 108 109 110 112 113 109 103 100 99 97 96 94 95 98 97 95 95 93 92 89 89 85 81 81 79 78 77 78 82 90 95
284 207 304 305 284 274 255 169 99 98 99 77 86 104 71 107 142 138 128 113 127 129 112 107 88 319 107 105 103 119 119 114 115 122 128 134 138 138 141 141 138 135 139 143 141 149 151 145 142 139 138 137 137 136 128 128 133 137 136 134 128 118 116 118 116 112 113 114 119 119 114 112 108 105 103 102 101 101 101 100 100 97 96 95 95 93 91 88 86 85 81 80 80 81 84 90 96
302 222 149 306 277 264 290 62 103 124 112 97 83 92 96 124 175 138 124 106 128 121 95 93 135 248 155 104 93 118 124 127 126 130 134 139 138 138 140 139 140 138 137 141 146 154 156 153 151 146 144 147 148 148 143 131 131 134 133 134 127 121 122 125 121 118 120 119 122 121 118 117 114 112 110 110 109 109 107 105 104 103 102 101 100 99 94 91 91 88 84 84 83 83 86 90 95
303 293 269 249 267 275 7 38 102 111 116 108 88 74 34 119 230 152 124 112 138 130 132 185 119 281 184 107 109 132 133 141 138 137 137 140 137 138 140 138 141 139 137 145 150 153 158 160 158 155 154 157 157 155 153 141 135 135 134 132 128 131 137 140 135 128 129 128 126 126 130 133 130 126 122 120 120 117 112 110 110 110 109 105 104 102 96 94 93 90 87 85 86 85 87 92 95
348 323 318 273 282 305 3 358 73 85 93 81 79 70 286 168 189 158 124 131 142 147 144 158 80 347 147 96 129 141 145 155 144 141 141 141 138 136 139 140 143 140 142 149 149 150 158 161 161 163 163 164 164 159 158 154 147 143 140 137 138 144 146 147 143 138 140 140 139 141 145 147 142 137 134 132 131 128 124 120 116 117 116 113 112 107 100 98 95 92 90 87 86 87 88 91 95
349 16 339 297 304 306 337 341 66 100 79 64 71 152 193 162 339 28 86 125 105 90 97 100 77 297 115 111 148 154 161 161 145 143 146 142 141 137 140 144 146 145 145 149 150 155 160 160 163 166 166 169 170 169 167 162 156 153 150 147 151 156 153 151 148 148 149 149 148 150 154 153 148 146 146 145 139 135 136 132 125 127 126 120 114 107 103 99 97 93 90 89 86 86 86 88 91
9 27 273 283 306 302 219 275 345 84 89 75 22 161 146 64 9 24 39 63 73 58 82 79 21 11 60 124 164 162 162 157 144 146 147 143 144 139 143 146 149 152 150 150 156 163 161 163 169 166 166 171 172 175 172 166 161 160 160 156 161 164 157 157 155 152 149 152 152 152 157 158 156 157 158 156 152 151 150 145 140 136 128 123 118 110 108 102 98 95 91 90 87 85 84 85 88
90 46 333 297 288 294 193 191 78 72 81 78 1 239 136 87 19 30 36 29 94 113 74 86 32 8 18 38 127 147 153 151 145 148 145 142 144 141 146 148 152 157 154 154 161 165 162 169 175 163 162 170 170 171 173 173 169 165 166 163 166 166 162 167 168 161 152 152 156 158 164 167 166 166 169 171 170 169 161 156 157 146 133 133 130 119 114 109 102 98 94 90 88 86 82 80 80
142 90 344 257 250 279 311 349 77 115 111 107 156 206 154 114 52 82 150 258 119 138 154 79 66 61 53 76 121 138 148 149 147 151 148 146 147 146 153 156 155 160 164 162 164 169 166 173 176 161 164 172 167 173 178 178 180 177 173 168 169 172 173 177 182 177 166 158 161 170 172 172 171 172 179 183 184 181 170 168 168 155 141 138 134 128 120 112 106 100 95 91 88 86 85 77 67
219 184 202 238 239 272 340 24 34 105 106 96 107 156 222 133 146 135 133 231 162 151 154 103 81 79 81 106 124 135 145 149 152 155 156 156 157 157 163 168 165 166 172 172 171 175 171 173 177 165 170 173 165 175 182 180 185 187 184 177 175 181 185 188 191 188 184 174 162 158 150 147 155 165 183 193 196 193 188 188 176 167 151 136 131 130 124 115 109 99 94 87 83 85 85 67 46
229 224 229 230 187 262 354 41 34 49 85 96 88 35 329 101 137 138 173 213 179 182 177 146 136 108 102 122 129 138 145 151 160 163 163 166 169 169 171 175 173 172 175 178 176 178 176 175 178 173 177 176 168 176 184 187 184 184 189 187 188 192 195 198 197 196 196 181 155 145 140 144 157 167 189 204 200 200 199 202 193 193 191 160 146 132 128 118 104 93 90 83 89 91 81 54 13
212 197 245 234 130 108 35 54 53 36 42 82 89 51 339 58 104 147 218 234 189 199 191 167 176 152 144 142 140 146 153 160 169 171 170 172 177 175 175 179 179 176 176 180 178 178 180 178 179 180 182 180 177 180 183 190 183 179 186 190 196 199 203 201 194 193 191 177 156 148 151 167 185 193 205 211 208 214 206 207 215 209 209 212 195 160 144 104 90 85 75 83 93 86 82 88 287
156 175 232 267 75 86 63 64 57 36 16 41 88 125 259 62 46 184 230 256 219 222 197 174 192 167 155 157 153 155 161 167 175 181 179 178 184 182 181 184 183 181 177 179 180 180 182 182 183 182 184 184 184 187 185 187 182 178 183 190 195 196 203 194 187 188 184 185 167 157 178 184 193 210 214 220 219 225 222 214 222 218 215 220 215 200 168 75 46 83 77 100 81 50 90 213 214
181 208 232 236 43 73 82 72 48 29 359 331 218 203 347 19 328 238 239 258 217 147 63 97 141 152 156 161 157 160 167 173 180 188 187 184 188 188 185 184 184 184 178 180 183 182 182 184 186 183 185 187 186 192 190 189 187 182 187 194 194 194 200 185 184 192 188 196 180 164 193 193 192 210 221 222 205 206 232 229 193 194 227 230 227 207 186 220 256 49 287 281 115 236 240 254 266
209 223 212 179 129 100 85 79 52 9 312 278 347 1 337 305 266 238 226 247 239 76 67 50 34 125 153 158 156 164 173 177 185 191 192 189 189 192 190 184 182 183 180 182 186 184 183 185 188 185 185 186 186 192 192 194 193 187 190 196 196 195 199 188 188 198 194 201 191 174 198 204 193 204 224 207 178 194 221 217 188 199 221 232 235 205 209 225 204 202 248 247 210 234 257 285 303
224 248 203 175 144 129 116 104 125 346 305 337 31 352 285 257 268 330 245 257 281 16 96 98 62 126 149 156 162 172 178 181 189 192 195 193 192 194 194 188 185 184 182 183 188 187 185 185 189 188 188 186 186 190 192 199 197 189 192 197 197 195 199 197 194 200 201 207 201 185 200 215 198 197 215 199 181 198 209 203 199 210 216 219 225 209 215 229 205 201 215 224 234 247 284 308 322
220 253 212 141 138 136 137 137 154 183 220 242 78 248 248 237 201 23 260 256 272 277 123 123 116 144 154 163 170 174 179 184 189 190 194 198 197 197 198 196 189 186 185 186 188 190 188 186 188 190 190 188 188 188 191 200 200 193 195 197 197 196 199 201 197 200 203 209 208 194 200 213 201 197 210 207 198 199 199 201 204 212 214 205 214 216 215 223 208 210 213 222 238 233 256 273 279
202 237 210 127 172 157 148 169 173 185 213 197 218 254 255 225 97 259 247 237 240 225 146 138 157 179 170 168 175 176 180 185 187 188 192 197 199 199 201 201 197 191 190 190 189 192 192 188 189 191 191 192 190 189 190 198 202 199 198 199 198 197 200 202 200 200 201 207 209 203 205 209 205 205 212 210 206 202 198 205 209 210 211 204 216 223 220 220 206 213 222 218 230 238 258 263 264
202 238 188 131 206 168 163 202 185 180 226 221 237 271 273 185 161 246 246 204 200 174 154 162 171 200 191 175 181 181 183 186 187 187 189 195 198 199 200 203 204 199 193 193 192 193 194 192 192 192 191 193 192 191 193 196 201 203 202 201 201 200 199 200 202 204 204 207 208 206 208 208 206 208 215 212 208 209 204 210 215 211 212 212 219 224 220 219 200 200 217 211 215 229 239 241 262
21 293 112 180 228 197 197 215 197 176 212 213 223 285 282 253 206 228 235 153 146 149 175 187 186 206 200 190 186 183 189 186 184 185 188 194 198 197 199 202 204 203 198 195 194 194 195 194 194 194 193 194 195 195 195 196 199 203 204 204 206 205 201 198 200 205 207 209 209 210 211 209 203 203 214 216 212 216 215 218 221 214 216 214 218 218 214 219 199 194 216 217 215 220 229 232 247
147 113 234 225 216 221 217 212 199 186 189 168 128 308 268 239 228 224 223 206 169 175 195 190 194 205 200 198 188 182 195 186 181 188 195 197 197 197 200 203 203 203 202 198 196 196 197 197 196 196 195 196 198 198 199 200 199 202 205 205 208 210 206 201 200 203 207 209 209 213 217 214 206 201 209 215 215 218 217 220 218 213 216 211 214 216 211 219 206 199 219 230 234 238 249 253 256
202 198 243 243 218 232 217 202 196 189 176 140 120 292 248 238 244 225 215 208 185 195 210 197 194 200 200 199 189 185 193 192 188 193 198 197 197 200 203 204 204 205 204 201 199 197 198 199 198 198 197 199 201 199 201 202 200 203 207 207 209 212 210 207 202 201 207 209 209 213 218 218 212 206 207 212 214 212 209 214 213 212 219 211 210 219 219 220 212 205 221 238 249 249 256 265 265
209 201 218 232 236 256 203 186 186 186 167 142 140 251 247 258 275 238 202 192 178 199 225 212 195 197 202 196 190 191 191 199 203 200 200 198 198 200 204 205 204 204 203 201 202 200 199 200 199 199 199 202 203 201 201 203 202 204 209 211 211 213 215 214 208 204 207 208 209 215 219 219 216 211 208 212 216 211 204 209 213 213 221 217 208 218 228 221 210 212 220 233 244 247 255 265 269
213 209 199 204 219 281 169 167 179 181 162 159 160 232 251 247 254 258 189 161 173 208 229 224 208 197 196 196 193 193 193 200 208 208 204 202 201 202 204 205 204 203 202 202 202 200 200 201 201 202 201 203 205 204 203 204 205 206 212 215 213 213 217 221 217 212 211 210 210 216 222 222 219 217 212 212 217 214 205 208 214 212 214 218 212 216 226 221 214 220 227 231 236 243 253 263 266
210 224 221 199 195 209 163 161 186 170 139 177 189 231 257 222 227 239 190 159 186 214 228 235 232 209 191 189 193 196 198 197 204 211 209 206 206 206 206 206 205 205 204 203 202 201 200 201 203 204 204 205 206 207 204 203 207 209 212 215 214 214 219 223 223 219 217 215 215 217 224 227 223 221 218 213 216 217 210 207 209 214 213 214 215 217 223 224 219 222 230 234 235 242 250 257 257
194 214 228 234 210 204 172 161 198 165 146 186 201 235 253 231 209 197 171 179 204 217 226 236 242 233 203 184 188 196 199 199 200 205 209 209 208 209 210 208 207 207 206 204 204 204 203 203 204 205 206 206 207 208 207 204 207 210 212 215 215 216 221 225 224 224 222 220 220 219 223 230 229 225 222 217 216 216 215 210 206 213 214 212 217 218 218 225 225 223 231 236 239 247 251 251 251
199 202 213 255 244 227 197 155 173 171 178 202 199 225 246 250 243 214 194 195 209 215 215 223 228 235 223 188 185 195 200 208 202 199 206 210 209 209 210 210 209 207 207 207 207 207 206 205 207 207 207 206 207 209 210 208 208 210 212 215 217 217 220 223 224 224 225 223 222 221 223 229 232 229 225 222 220 217 216 214 209 210 212 213 217 215 214 221 224 225 232 237 241 248 251 248 248
211 203 198 232 243 241 216 146 158 176 188 212 210 227 241 243 241 231 218 204 209 217 212 217 216 224 232 204 186 196 207 215 206 199 202 207 208 207 206 208 209 208 208 207 207 208 208 207 208 209 208 206 205 206 209 210 208 209 210 212 215 217 217 219 222 223 225 224 222 221 223 226 230 231 227 224 224 221 218 216 214 210 211 214 215 212 215 219 221 224 230 234 237 243 246 247 247
235 214 201 222 234 248 221 143 166 184 182 207 219 237 245 247 247 237 229 220 218 219 216 222 217 211 219 215 202 199 207 216 209 203 201 203 206 204 203 205 206 206 206 207 208 209 209 209 209 211 210 208 205 205 207 208 208 208 210 212 214 215 217 218 220 222 223 224 223 222 223 225 228 229 229 226 225 225 222 220 218 214 211 215 216 216 219 222 223 226 229 231 235 239 240 242 245
254 237 215 228 232 258 263 124 155 161 168 228 233 255 254 252 256 249 242 239 231 220 216 219 219 217 213 212 213 207 205 207 205 205 200 198 200 200 200 201 203 203 204 206 208 210 210 211 211 212 211 210 210 209 210 211 211 210 211 214 215 216 218 219 220 222 223 223 223 223 224 224 225 227 228 227 226 226 225 223 221 219 215 215 219 221 222 223 224 226 227 227 230 235 237 239 240
246 235 222 231 221 239 5 107 140 127 91 258 259 272 267 264 265 257 250 250 243 227 221 217 213 218 220 213 213 211 208 201 196 200 197 194 195 197 197 200 203 204 204 206 208 210 210 212 213 212 211 212 213 213 214 216 217 216 217 218 218 218 221 223 225 225 224 224 223 222 223 224 224 225 227 228 228 228 227 225 222 220 219 217 218 220 221 221 222 224 225 227 228 229 236 238 235
237 229 219 227 215 212 189 90 165 152 186 263 284 285 277 276 271 259 247 243 242 235 231 227 214 214 218 215 211 207 204 201 197 199 197 196 195 193 195 200 203 204 204 206 208 208 210 211 212 212 211 213 215 215 215 217 219 221 224 224 223 223 224 227 230 228 226 225 223 220 220 223 224 225 225 226 228 228 227 225 222 220 219 218 218 219 221 221 221 223 224 226 226 225 230 231 229
235 232 217 223 229 220 200 169 191 192 208 236 308 311 274 254 248 249 240 227 231 233 233 236 227 216 214 218 220 212 206 201 197 200 201 197 194 195 198 202 202 202 205 208 208 208 210 212 213 212 212 213 215 216 217 216 216 219 222 223 224 225 225 226 226 226 224 224 225 221 218 219 221 223 223 224 226 226 224 223 222 220 218 218 218 220 222 224 223 224 224 223 223 224 225 224 226
233 223 217 241 260 254 213 162 140 330 272 189 269 300 273 266 254 260 271 229 235 230 222 233 234 218 207 216 227 227 223 214 204 203 202 198 197 198 201 202 201 203 208 211 210 210 212 213 214 212 212 213 214 216 217 214 213 214 215 215 215 216 219 221 221 222 222 223 225 225 221 218 218 220 221 222 224 224 223 222 221 220 218 218 220 221 223 224 222 222 223 222 224 226 224 222 221
238 205 200 226 270 309 293 114 100 55 265 198 187 214 273 309 293 284 314 310 282 258 223 225 226 215 206 210 220 226 230 227 220 213 203 198 198 197 201 203 202 207 213 214 212 212 213 214 214 213 212 213 215 215 215 213 212 213 214 215 216 215 217 222 223 223 224 225 226 227 226 223 220 220 220 221 222 223 223 222 220 219 219 218 219 221 222 222 222 222 223 223 224 224 221 220 219
261 210 177 193 228 277 330 33 58 241 341 266 203 175 254 282 267 260 270 273 271 262 249 238 225 218 210 211 217 221 227 227 225 224 213 204 199 197 201 205 207 212 216 213 211 213 214 215 214 213 213 214 215 215 213 214 214 213 214 217 220 221 223 226 227 226 226 228 228 228 229 228 224 222 221 221 221 223 224 222 221 219 218 218 218 219 221 221 221 223 223 222 221 221 218 219 219
270 300 150 163 203 222 179 100 260 307 21 290 217 169 243 265 256 245 234 240 252 249 245 242 232 221 210 213 220 220 222 223 222 222 218 214 211 207 206 208 211 216 216 212 213 215 214 215 214 213 214 215 216 214 213 214 216 215 215 217 221 225 227 230 231 229 227 228 228 228 228 228 227 226 225 223 223 224 224 223 222 220 220 220 219 220 221 220 220 220 218 218 219 220 219 219 220
213 192 104 100 111 50 46 88 70 7 345 240 210 180 236 266 258 245 222 227 239 235 235 235 224 212 200 204 214 219 216 215 219 218 213 212 216 220 219 216 215 216 216 216 216 216 214 214 215 214 216 217 217 216 214 215 216 216 216 217 222 226 228 230 231 230 228 226 226 226 226 226 227 228 227 226 225 225 226 225 223 222 223 223 222 221 220 219 220 218 216 216 218 219 218 218 218
132 118 90 75 67 62 45 47 68 19 270 235 203 197 212 274 256 230 215 239 237 201 209 210 162 135 131 150 166 187 173 163 174 190 207 211 213 219 221 219 216 214 214 214 215 216 215 215 214 215 218 218 218 218 217 217 217 217 218 219 222 225 227 227 227 228 227 225 225 225 225 225 225 226 227 227 226 226 226 226 226 226 226 225 223 222 220 219 218 217 216 215 217 218 216 216 216
124 119 115 92 71 73 55 58 99 203 254 267 222 197 192 225 253 227 199 251 349 118 169 158 120 94 69 57 65 82 105 123 144 179 220 222 218 216 213 215 215 210 206 208 212 214 213 214 214 215 218 219 220 220 219 220 219 219 221 223 224 226 227 226 227 228 226 224 225 225 224 224 224 225 226 226 226 226 225 226 228 229 227 225 224 222 221 219 218 216 216 215 216 217 216 216 215
137 147 146 125 121 113 169 191 185 220 232 267 294 144 204 230 249 255 262 259 219 191 194 155 128 103 64 63 154 139 137 147 171 202 221 216 217 217 214 216 217 214 210 209 212 213 213 215 215 216 220 221 221 221 220 221 221 223 225 226 228 229 229 230 230 231 229 227 227 226 224 223 223 224 225 226 227 226 226 227 228 228 227 226 224 222 221 220 219 218 217 217 217 216 215 217 217
168 169 163 156 150 149 204 195 212 242 246 281 349 61 278 265 253 242 250 261 247 208 193 155 141 159 178 211 237 207 193 207 210 215 221 215 218 223 222 223 222 220 221 219 218 217 216 218 218 220 225 225 223 223 222 223 224 225 227 229 230 231 231 232 234 234 233 231 229 228 228 226 225 226 227 227 227 226 227 229 228 227 228 227 225 223 220 219 219 218 218 217 217 216 216 219 222
178 178 170 190 179 167 187 180 198 206 91 319 266 135 211 209 279 251 237 257 282 190 166 153 150 167 163 179 289 280 258 240 220 210 217 219 218 224 227 229 226 223 223 222 221 220 219 221 223 225 229 229 227 226 225 225 227 228 229 230 231 232 233 234 234 235 234 234 232 231 231 230 229 230 230 230 228 227 228 228 228 228 229 229 226 224 221 218 217 218 219 217 216 216 216 219 223
195 180 170 222 231 162 154 161 171 145 90 266 220 240 232 214 286 289 261 251 255 212 171 153 166 176 157 193 238 243 244 185 166 182 213 222 211 213 219 219 222 223 219 218 217 217 218 221 224 227 231 232 231 230 230 230 231 232 232 233 234 234 235 236 236 236 235 235 234 233 234 233 233 233 232 231 228 227 227 227 228 229 230 229 227 225 223 219 217 217 217 215 215 216 217 219 221
181 194 187 209 347 102 123 55 90 96 278 240 185 246 282 285 282 268 243 243 236 212 198 181 189 173 159 177 173 159 154 131 153 181 201 217 207 212 219 219 221 221 219 219 218 218 220 222 225 228 231 233 233 232 233 233 233 234 235 235 236 236 237 237 238 238 237 237 236 236 236 235 234 234 234 232 229 228 228 228 229 230 229 228 226 224 223 220 217 216 216 214 214 216 219 221 220
153 194 186 114 32 26 104 100 63 111 247 251 186 219 247 227 266 254 213 224 230 212 199 183 176 153 143 156 152 156 170 170 182 186 195 211 211 215 219 220 225 225 223 225 224 225 226 226 228 230 232 233 234 233 233 234 234 235 236 237 237 238 238 239 240 240 240 238 237 236 236 236 235 234 233 231 229 228 227 228 229 229 228 227 225 223 223 222 220 218 218 216 215 217 219 218 216
170 179 164 139 81 235 164 165 179 175 218 269 224 216 219 205 227 261 200 204 213 217 199 169 164 152 147 158 167 177 174 168 180 181 196 211 210 211 211 212 224 229 232 233 229 228 230 231 230 230 233 234 235 235 234 234 235 236 238 239 239 240 241 241 241 241 240 239 239 238 237 238 237 235 233 231 229 228 227 226 227 228 227 226 224 223 222 220 219 219 219 219 220 219 217 211 208
328 170 174 194 201 171 175 175 148 155 196 256 257 218 227 219 209 217 216 198 198 208 192 168 164 155 158 171 178 183 176 177 189 194 208 219 215 211 196 196 214 228 240 242 237 234 233 236 235 234 236 236 235 236 235 236 237 237 240 242 242 243 243 243 243 242 242 242 241 240 239 240 238 236 233 230 229 227 226 226 227 227 226 226 224 222 221 218 216 216 217 219 219 215 211 208 205
173 179 186 197 186 128 153 183 168 144 170 224 254 249 253 244 201 205 211 195 189 188 161 157 163 156 166 178 179 183 183 188 201 208 218 226 233 230 192 200 247 259 255 249 243 242 235 235 239 241 242 242 242 242 239 239 240 240 242 244 245 246 245 246 246 245 245 245 244 242 241 241 240 237 233 230 228 227 226 226 226 226 226 226 224 222 221 220 218 217 218 218 216 212 211 211 210
184 184 183 185 177 135 144 205 204 180 189 203 217 259 267 254 176 190 201 185 171 159 144 155 173 168 170 176 178 183 185 193 204 210 219 230 241 247 219 236 277 282 269 259 249 246 238 236 241 245 247 248 251 252 249 248 246 243 243 244 246 247 247 248 248 247 247 247 248 247 244 242 241 238 233 229 227 227 227 226 226 227 227 226 225 222 221 220 218 218 216 214 214 211 209 207 206